Regional Weather Roundup
Issued by NWS Sioux Falls, SD

Home | Current Version | Previous Version | Text Only | Print | Product List | Glossary Off
Versions: 1 2 3 4 5 6 7 8 9 10 11 12 13 14 15 16 17 18 19 20 21 22 23 24 25 26 27 28 29 30 31 32 33 34 35 36 37 38 39 40 41 42 43 44 45 46 47 48 49 50

000
ASUS43 KFSD 221002
RWRFSD

WEATHER ROUNDUP FOR SE SOUTH DAKOTA/SW MINNESOTA/NW IOWA
NATIONAL WEATHER SERVICE SIOUX FALLS SD
500 AM CDT MON SEP 22 2014

NOTE: "FAIR" INDICATES FEW OR NO CLOUDS BELOW 12,000 FEET WITH NO
SIGNIFICANT WEATHER AND OR OBSTRUCTIONS TO VISIBILITY.


SDZ038>040-050-052>070-221100-
SOUTHEAST SOUTH DAKOTA

CITY           SKY/WX    TMP DP  RH WIND       PRES   REMARKS
CHAMBERLAIN    CLEAR     46  42  88 SE5       30.25S
HURON          CLEAR     45  41  86 SE5       30.24S
MADISON        FAIR      45  45 100 S7        30.27S
MITCHELL       CLEAR     43  42  97 SE5       30.26S
SIOUX FALLS    CLEAR     45  42  89 CALM      30.28R
WINNER         FAIR      50  42  74 SE9       30.24F
YANKTON        CLEAR     46  43  87 CALM      30.29R
$$

MNZ071-072-080-081-089-090-097-098-221100-
SOUTHWEST MINNESOTA

CITY           SKY/WX    TMP DP  RH WIND       PRES   REMARKS
FAIRMONT       CLEAR     45  39  81 CALM      30.26S
JACKSON        CLEAR     43  41  93 CALM      30.27S
LUVERNE        FOG       43  41  93 CALM      30.29R VSB 1/4
MARSHALL       CLEAR     46  43  87 SW5       30.24S
MONTEVIDEO     CLEAR     46  43  87 W5        30.25S
PIPESTONE      CLEAR     43  43 100 SW5       30.27S
REDWOOD FALLS  CLEAR     45  43  93 CALM      30.25R
TRACY          CLEAR     48  46  93 CALM      30.26S
WINDOM           N/A     41  41 100 CALM      30.27R FOG
WORTHINGTON    CLEAR     43  43 100 SW3       30.29R
$$

IAZ001>003-012>014-020>022-031-032-NEZ013-014-SDZ071-221100-
NORTHWEST IOWA

CITY           SKY/WX    TMP DP  RH WIND       PRES   REMARKS
CHEROKEE         N/A     42  42 100 CALM      30.30R FOG
DENISON        CLEAR     45  45 100 SE3       30.28S
ESTHERVILLE    CLEAR     41  41 100 SW3       30.27R
LE MARS          N/A     45  43  93 CALM      30.30S
ORANGE CITY    CLEAR     48  45  87 CALM      30.29S
SHELDON        CLEAR     41  41 100 CALM      30.28S
SIOUX CITY     CLEAR     45  44  97 CALM      30.29S
SPENCER        CLEAR     42  40  92 W3        30.29R
$$

ABBREVIATIONS USED IN REMARKS
   TC - TEMPERATURE IN CELSIUS
  WCI - WIND CHILL INDEX
   HX - HEAT INDEX
  VSB - VISIBILITY



USA.gov is the U.S. government's official web portal to all federal, state and local government web resources and services.